| time (UTC) | temp C | wind direction | speed KPH | gust KPH | rain 1hr cm | rain 24hr cm | rain mn cm | humidity % | barometer mb |
| 20260901131549 | 10 | 242 | 6.4 | 17.7 | 0.00 | 0.00 | 0.00 | 86 | 1013.7 |
| 20260901131039 | 9 | 245 | 6.4 | 17.7 | 0.00 | 0.00 | 0.00 | 86 | 1013.7 |
| 20260901130540 | 10 | 269 | 6.4 | 17.7 | 0.00 | 0.00 | 0.00 | 85 | 1013.7 |
| 20260901130059 | 10 | 270 | 6.4 | 16.1 | 0.00 | 0.00 | 0.00 | 86 | 1013.5 |
| 20260901125539 | 10 | 291 | 8.0 | 16.1 | 0.00 | 0.00 | 0.00 | 85 | 1013.5 |
| 20260901125039 | 10 | 248 | 8.0 | 17.7 | 0.00 | 0.00 | 0.00 | 86 | 1013.4 |
| 20260901124600 | 9 | 267 | 8.0 | 17.7 | 0.00 | 0.00 | 0.00 | 86 | 1013.4 |
| 20260901124042 | 9 | 253 | 8.0 | 16.1 | 0.00 | 0.00 | 0.00 | 86 | 1013.2 |
| 20260901123539 | 9 | 261 | 8.0 | 16.1 | 0.00 | 0.00 | 0.00 | 86 | 1013.4 |
| 20260901123055 | 9 | 241 | 6.4 | 19.3 | 0.00 | 0.00 | 0.00 | 86 | 1013.4 |
| 20260901122540 | 9 | 244 | 6.4 | 19.3 | 0.00 | 0.00 | 0.00 | 86 | 1013.4 |
| 20260901122040 | 9 | 242 | 8.0 | 19.3 | 0.00 | 0.00 | 0.00 | 86 | 1013.4 |
| 20260901121549 | 10 | 277 | 11.3 | 19.3 | 0.00 | 0.00 | 0.00 | 86 | 1013.4 |
| 20260901121039 | 10 | 240 | 9.7 | 16.1 | 0.00 | 0.00 | 0.00 | 86 | 1013.3 |
| 20260901120540 | 10 | 290 | 9.7 | 16.1 | 0.00 | 0.00 | 0.00 | 86 | 1013.3 |
| 20260901120056 | 9 | 244 | 8.0 | 20.9 | 0.00 | 0.00 | 0.00 | 87 | 1013.3 |
| 20260901115539 | 9 | 272 | 6.4 | 20.9 | 0.00 | 0.00 | 0.00 | 86 | 1013.3 |
| 20260901115039 | 9 | 255 | 8.0 | 20.9 | 0.00 | 0.00 | 0.00 | 87 | 1013.4 |
| 20260901114601 | 9 | 259 | 6.4 | 14.5 | 0.00 | 0.00 | 0.00 | 87 | 1013.5 |
| 20260901114039 | 9 | 246 | 8.0 | 14.5 | 0.00 | 0.00 | 0.00 | 87 | 1013.5 |
| 20260901113539 | 9 | 269 | 8.0 | 14.5 | 0.00 | 0.00 | 0.00 | 87 | 1013.6 |
| 20260901113051 | 9 | 287 | 6.4 | 16.1 | 0.00 | 0.00 | 0.00 | 86 | 1013.5 |
| 20260901112539 | 9 | 244 | 4.8 | 17.7 | 0.00 | 0.00 | 0.00 | 86 | 1013.5 |
| 20260901112039 | 9 | 243 | 8.0 | 17.7 | 0.00 | 0.00 | 0.00 | 86 | 1013.6 |
| 20260901111549 | 9 | 243 | 8.0 | 17.7 | 0.00 | 0.00 | 0.00 | 87 | 1013.6 |
| 20260901111040 | 9 | 279 | 8.0 | 14.5 | 0.00 | 0.00 | 0.00 | 87 | 1013.4 |
| 20260901110538 | 9 | 255 | 6.4 | 14.5 | 0.00 | 0.00 | 0.00 | 87 | 1013.3 |
| 20260901110058 | 9 | 290 | 6.4 | 16.1 | 0.00 | 0.00 | 0.00 | 88 | 1013.3 |
| 20260901105539 | 9 | 239 | 6.4 | 19.3 | 0.00 | 0.00 | 0.00 | 88 | 1013.3 |
| 20260901105040 | 8 | 244 | 8.0 | 19.3 | 0.00 | 0.00 | 0.00 | 88 | 1013.3 |
| 20260901104553 | 9 | 243 | 12.9 | 19.3 | 0.00 | 0.00 | 0.00 | 87 | 1013.5 |
| 20260901104039 | 9 | 290 | 12.9 | 16.1 | 0.00 | 0.00 | 0.00 | 88 | 1013.6 |
| 20260901103538 | 8 | 254 | 6.4 | 11.3 | 0.00 | 0.00 | 0.00 | 90 | 1013.8 |
| 20260901103100 | 8 | 311 | 3.2 | 11.3 | 0.00 | 0.00 | 0.00 | 91 | 1013.8 |
| 20260901102539 | 8 | 49 | 1.6 | 11.3 | 0.00 | 0.00 | 0.00 | 90 | 1013.8 |
| 20260901102040 | 8 | 38 | 0.0 | 11.3 | 0.00 | 0.00 | 0.00 | 90 | 1013.6 |
| 20260901101547 | 8 | 64 | 4.8 | 12.9 | 0.00 | 0.00 | 0.00 | 91 | 1013.5 |
| 20260901101039 | 8 | 289 | 8.0 | 12.9 | 0.00 | 0.00 | 0.00 | 93 | 1013.5 |
| 20260901100538 | 7 | 235 | 0.0 | 6.4 | 0.00 | 0.00 | 0.00 | 92 | 1013.5 |
| 20260901100058 | 7 | 0 | 1.6 | 4.8 | 0.00 | 0.00 | 0.00 | 92 | 1013.4 |
| 20260901095541 | 7 | 234 | 1.6 | 4.8 | 0.00 | 0.00 | 0.00 | 92 | 1013.4 |
| 20260901095039 | 7 | 234 | 0.0 | 3.2 | 0.00 | 0.00 | 0.00 | 92 | 1013.4 |
| 20260901094558 | 7 | 234 | 0.0 | 3.2 | 0.00 | 0.00 | 0.00 | 92 | 1013.4 |
| 20260901094038 | 7 | 0 | 0.0 | 3.2 | 0.00 | 0.00 | 0.00 | 92 | 1013.4 |
| 20260901093539 | 7 | 0 | 0.0 | 3.2 | 0.00 | 0.00 | 0.00 | 92 | 1013.4 |
| 20260901093052 | 7 | 0 | 0.0 | 3.2 | 0.00 | 0.00 | 0.00 | 92 | 1013.3 |
| 20260901092543 | 7 | 0 | 0.0 | 1.6 | 0.00 | 0.00 | 0.00 | 92 | 1013.3 |
| 20260901092039 | 7 | 0 | 0.0 | 1.6 | 0.00 | 0.00 | 0.00 | 92 | 1013.3 |
| 20260901091552 | 7 | 0 | 0.0 | 1.6 | 0.00 | 0.00 | 0.00 | 93 | 1013.2 |
| 20260901091036 | 7 | 0 | 0.0 | 0.0 | 0.00 | 0.00 | 0.00 | 92 | 1013.2 |
| 20260901090538 | 7 | 0 | 0.0 | 1.6 | 0.00 | 0.00 | 0.00 | 92 | 1013.3 |
| 20260901090056 | 7 | 0 | 0.0 | 1.6 | 0.00 | 0.00 | 0.00 | 92 | 1013.2 |
| 20260901085539 | 7 | 0 | 0.0 | 1.6 | 0.00 | 0.00 | 0.00 | 92 | 1013.2 |
| 20260901085039 | 7 | 0 | 0.0 | 1.6 | 0.00 | 0.00 | 0.00 | 92 | 1013.1 |
| 20260901084557 | 7 | 0 | 0.0 | 1.6 | 0.00 | 0.00 | 0.00 | 91 | 1013.1 |
| 20260901084040 | 7 | 0 | 0.0 | 1.6 | 0.00 | 0.00 | 0.00 | 91 | 1013.0 |
| 20260901083540 | 7 | 0 | 0.0 | 1.6 | 0.00 | 0.00 | 0.00 | 91 | 1013.0 |
| 20260901083059 | 7 | 0 | 0.0 | 0.0 | 0.00 | 0.00 | 0.00 | 91 | 1013.0 |
| 20260901082538 | 7 | 0 | 0.0 | 1.6 | 0.00 | 0.00 | 0.00 | 91 | 1012.9 |
| 20260901082039 | 7 | 0 | 0.0 | 1.6 | 0.00 | 0.00 | 0.00 | 91 | 1012.9 |
| 20260901081557 | 7 | 0 | 0.0 | 1.6 | 0.00 | 0.00 | 0.00 | 91 | 1013.2 |
| 20260901081039 | 7 | 0 | 0.0 | 3.2 | 0.00 | 0.00 | 0.00 | 91 | 1013.0 |
| 20260901080539 | 7 | 0 | 0.0 | 3.2 | 0.00 | 0.00 | 0.00 | 91 | 1013.0 |
| 20260901080058 | 7 | 0 | 0.0 | 1.6 | 0.00 | 0.00 | 0.00 | 91 | 1012.9 |
| 20260901075539 | 7 | 0 | 0.0 | 3.2 | 0.00 | 0.00 | 0.00 | 91 | 1012.8 |
| 20260901075039 | 7 | 234 | 0.0 | 3.2 | 0.00 | 0.00 | 0.00 | 91 | 1012.5 |
| 20260901074603 | 6 | 234 | 0.0 | 1.6 | 0.00 | 0.00 | 0.00 | 90 | 1012.5 |
| 20260901074039 | 6 | 0 | 0.0 | 3.2 | 0.00 | 0.00 | 0.00 | 91 | 1012.6 |
| 20260901073539 | 6 | 234 | 0.0 | 3.2 | 0.00 | 0.00 | 0.00 | 90 | 1012.7 |
| 20260901073102 | 6 | 0 | 0.0 | 1.6 | 0.00 | 0.00 | 0.00 | 89 | 1012.7 |
| 20260901072543 | 6 | 0 | 0.0 | 3.2 | 0.00 | 0.00 | 0.00 | 89 | 1012.7 |
| 20260901072040 | 6 | 0 | 0.0 | 3.2 | 0.00 | 0.00 | 0.00 | 89 | 1012.7 |
| 20260901071557 | 6 | 0 | 1.6 | 3.2 | 0.00 | 0.00 | 0.00 | 88 | 1012.7 |
| 20260901071038 | 7 | 275 | 1.6 | 3.2 | 0.00 | 0.00 | 0.00 | 88 | 1012.7 |
| 20260901070538 | 7 | 272 | 1.6 | 3.2 | 0.00 | 0.00 | 0.00 | 87 | 1012.6 |
| 20260901070057 | 7 | 0 | 0.0 | 0.0 | 0.00 | 0.00 | 0.00 | 87 | 1012.5 |
| 20260901065539 | 7 | 0 | 0.0 | 0.0 | 0.00 | 0.00 | 0.00 | 87 | 1012.6 |
| 20260901065039 | 7 | 0 | 0.0 | 0.0 | 0.00 | 0.00 | 0.00 | 87 | 1012.6 |
| 20260901064553 | 8 | 0 | 0.0 | 0.0 | 0.00 | 0.00 | 0.00 | 87 | 1012.5 |
| 20260901064039 | 8 | 0 | 0.0 | 0.0 | 0.00 | 0.00 | 0.00 | 87 | 1012.6 |
| 20260901063538 | 8 | 0 | 0.0 | 0.0 | 0.00 | 0.00 | 0.00 | 86 | 1012.5 |
| 20260901063047 | 8 | 0 | 0.0 | 0.0 | 0.00 | 0.00 | 0.00 | 85 | 1012.3 |
| 20260901062540 | 8 | 0 | 0.0 | 0.0 | 0.00 | 0.00 | 0.00 | 85 | 1012.3 |
| 20260901062038 | 8 | 0 | 0.0 | 0.0 | 0.00 | 0.00 | 0.00 | 84 | 1012.4 |
| 20260901061556 | 8 | 0 | 0.0 | 0.0 | 0.00 | 0.00 | 0.00 | 83 | 1012.4 |
| 20260901061039 | 9 | 0 | 0.0 | 0.0 | 0.00 | 0.00 | 0.00 | 82 | 1012.4 |
| 20260901060540 | 9 | 0 | 0.0 | 0.0 | 0.00 | 0.00 | 0.00 | 81 | 1012.4 |
| 20260901060058 | 10 | 0 | 0.0 | 0.0 | 0.00 | 0.00 | 0.00 | 80 | 1012.3 |
| 20260901055539 | 10 | 0 | 0.0 | 1.6 | 0.00 | 0.00 | 0.00 | 80 | 1012.2 |
| 20260901055039 | 10 | 0 | 0.0 | 6.4 | 0.00 | 0.00 | 0.00 | 80 | 1012.2 |
| 20260901054553 | 10 | 0 | 0.0 | 6.4 | 0.00 | 0.00 | 0.00 | 79 | 1012.1 |
| 20260901054039 | 11 | 274 | 3.2 | 9.7 | 0.00 | 0.00 | 0.00 | 79 | 1012.2 |
| 20260901053541 | 11 | 267 | 3.2 | 9.7 | 0.00 | 0.00 | 0.00 | 79 | 1012.1 |
| 20260901053052 | 11 | 257 | 6.4 | 9.7 | 0.00 | 0.00 | 0.00 | 79 | 1012.3 |
| 20260901052538 | 11 | 281 | 3.2 | 9.7 | 0.00 | 0.00 | 0.00 | 78 | 1012.2 |
| 20260901052039 | 11 | 272 | 4.8 | 16.1 | 0.00 | 0.00 | 0.00 | 78 | 1012.2 |
| 20260901051559 | 11 | 275 | 6.4 | 16.1 | 0.00 | 0.00 | 0.00 | 77 | 1012.3 |
| 20260901051038 | 11 | 296 | 6.4 | 12.9 | 0.00 | 0.00 | 0.00 | 77 | 1012.2 |
| 20260901050540 | 11 | 290 | 6.4 | 14.5 | 0.00 | 0.00 | 0.00 | 76 | 1012.3 |
| 20260901050053 | 12 | 242 | 6.4 | 16.1 | 0.00 | 0.00 | 0.00 | 75 | 1012.3 |
| 20260901045536 | 12 | 253 | 6.4 | 16.1 | 0.00 | 0.00 | 0.00 | 74 | 1012.2 |
| 20260901045039 | 12 | 253 | 8.0 | 22.5 | 0.00 | 0.00 | 0.00 | 73 | 1012.2 |
| 20260901044547 | 12 | 246 | 12.9 | 22.5 | 0.00 | 0.00 | 0.00 | 73 | 1012.2 |
| 20260901044036 | 12 | 248 | 12.9 | 22.5 | 0.00 | 0.00 | 0.00 | 74 | 1012.2 |
| 20260901043537 | 12 | 244 | 12.9 | 20.9 | 0.00 | 0.00 | 0.00 | 74 | 1012.1 |
| 20260901043048 | 12 | 246 | 12.9 | 22.5 | 0.00 | 0.00 | 0.00 | 73 | 1012.1 |
| 20260901042536 | 12 | 263 | 14.5 | 22.5 | 0.00 | 0.00 | 0.00 | 72 | 1011.9 |
| 20260901042039 | 12 | 250 | 11.3 | 24.1 | 0.00 | 0.00 | 0.00 | 71 | 1011.9 |
| 20260901041559 | 12 | 249 | 12.9 | 25.7 | 0.00 | 0.00 | 0.00 | 71 | 1011.8 |
| 20260901041036 | 12 | 235 | 12.9 | 25.7 | 0.00 | 0.00 | 0.00 | 71 | 1011.8 |
| 20260901040537 | 12 | 232 | 12.9 | 24.1 | 0.00 | 0.00 | 0.00 | 71 | 1011.8 |
| 20260901040110 | 12 | 259 | 14.5 | 22.5 | 0.00 | 0.00 | 0.00 | 71 | 1011.8 |
| 20260901035536 | 12 | 242 | 12.9 | 22.5 | 0.00 | 0.00 | 0.00 | 69 | 1011.9 |
| 20260901035036 | 12 | 257 | 14.5 | 20.9 | 0.00 | 0.00 | 0.00 | 69 | 1011.8 |
| 20260901034549 | 13 | 263 | 9.7 | 19.3 | 0.00 | 0.00 | 0.00 | 69 | 1011.8 |
| 20260901034037 | 13 | 251 | 9.7 | 22.5 | 0.00 | 0.00 | 0.00 | 67 | 1011.8 |
| 20260901033615 | 13 | 254 | 11.3 | 24.1 | 0.00 | 0.00 | 0.00 | 68 | 1011.6 |
| 20260901033057 | 13 | 302 | 14.5 | 27.4 | 0.00 | 0.00 | 0.00 | 67 | 1011.5 |
| 20260901032538 | 13 | 271 | 12.9 | 27.4 | 0.00 | 0.00 | 0.00 | 69 | 1011.4 |
| 20260901032036 | 13 | 304 | 17.7 | 27.4 | 0.00 | 0.00 | 0.00 | 67 | 1011.3 |
| 20260901031556 | 13 | 290 | 11.3 | 24.1 | 0.00 | 0.00 | 0.00 | 67 | 1011.4 |
| 20260901031036 | 13 | 272 | 12.9 | 30.6 | 0.00 | 0.00 | 0.00 | 65 | 1011.4 |
| 20260901030536 | 13 | 237 | 11.3 | 30.6 | 0.00 | 0.00 | 0.00 | 66 | 1011.4 |
| 20260901030050 | 13 | 285 | 12.9 | 25.7 | 0.00 | 0.00 | 0.00 | 65 | 1011.3 |
| 20260901025539 | 13 | 263 | 11.3 | 25.7 | 0.00 | 0.00 | 0.00 | 67 | 1011.3 |
| 20260901025040 | 13 | 234 | 14.5 | 22.5 | 0.00 | 0.00 | 0.00 | 70 | 1011.3 |
| 20260901024600 | 13 | 253 | 11.3 | 25.7 | 0.00 | 0.00 | 0.00 | 68 | 1011.3 |
| 20260901024036 | 13 | 245 | 17.7 | 25.7 | 0.00 | 0.00 | 0.00 | 64 | 1011.3 |
| 20260901023538 | 13 | 310 | 14.5 | 24.1 | 0.00 | 0.00 | 0.00 | 67 | 1011.1 |
| 20260901023100 | 13 | 275 | 12.9 | 27.4 | 0.00 | 0.00 | 0.00 | 67 | 1011.1 |
| 20260901022536 | 13 | 241 | 16.1 | 27.4 | 0.00 | 0.00 | 0.00 | 67 | 1011.1 |
| 20260901022037 | 13 | 238 | 16.1 | 27.4 | 0.00 | 0.00 | 0.00 | 63 | 1010.9 |
| 20260901021557 | 13 | 229 | 12.9 | 27.4 | 0.00 | 0.00 | 0.00 | 61 | 1011.0 |
| 20260901021037 | 13 | 239 | 16.1 | 29.0 | 0.00 | 0.00 | 0.00 | 63 | 1011.0 |
| 20260901020536 | 12 | 246 | 14.5 | 30.6 | 0.00 | 0.00 | 0.00 | 66 | 1011.0 |
| 20260901020051 | 12 | 247 | 20.9 | 30.6 | 0.00 | 0.00 | 0.00 | 59 | 1011.1 |
| 20260901015537 | 12 | 238 | 19.3 | 32.2 | 0.00 | 0.00 | 0.00 | 64 | 1010.9 |
| 20260901015039 | 13 | 257 | 20.9 | 32.2 | 0.00 | 0.00 | 0.00 | 62 | 1011.0 |
| 20260901014602 | 13 | 234 | 19.3 | 27.4 | 0.00 | 0.00 | 0.00 | 63 | 1011.0 |
| 20260901014036 | 12 | 246 | 17.7 | 27.4 | 0.00 | 0.00 | 0.00 | 62 | 1011.1 |
| 20260901013540 | 12 | 228 | 20.9 | 30.6 | 0.00 | 0.00 | 0.00 | 62 | 1010.9 |
| 20260901013110 | 12 | 234 | 19.3 | 32.2 | 0.00 | 0.00 | 0.00 | 64 | 1011.0 |
| 20260901012536 | 12 | 234 | 24.1 | 32.2 | 0.00 | 0.00 | 0.00 | 63 | 1011.0 |
| 20260901012036 | 12 | 232 | 17.7 | 32.2 | 0.00 | 0.00 | 0.00 | 69 | 1011.0 |
| 20260901011558 | 12 | 244 | 22.5 | 32.2 | 0.00 | 0.00 | 0.00 | 61 | 1011.1 |
| 20260901011039 | 12 | 250 | 17.7 | 29.0 | 0.00 | 0.00 | 0.00 | 63 | 1011.2 |
| 20260901010536 | 12 | 242 | 20.9 | 29.0 | 0.00 | 0.00 | 0.00 | 65 | 1011.3 |
| 20260901010056 | 12 | 246 | 19.3 | 27.4 | 0.00 | 0.00 | 0.00 | 70 | 1011.3 |
| 20260901005541 | 11 | 232 | 17.7 | 24.1 | 0.00 | 0.00 | 0.00 | 66 | 1011.4 |
| 20260901005039 | 11 | 238 | 16.1 | 25.7 | 0.00 | 0.00 | 0.00 | 66 | 1011.4 |
| 20260901004554 | 11 | 253 | 17.7 | 25.7 | 0.00 | 0.00 | 0.00 | 65 | 1011.5 |
| 20260901004039 | 12 | 232 | 19.3 | 25.7 | 0.00 | 0.00 | 0.00 | 65 | 1011.5 |
| 20260901003539 | 12 | 236 | 19.3 | 27.4 | 0.00 | 0.00 | 0.00 | 66 | 1011.6 |
| 20260901003059 | 12 | 244 | 19.3 | 27.4 | 0.00 | 0.00 | 0.00 | 69 | 1011.6 |
| 20260901002540 | 12 | 240 | 16.1 | 24.1 | 0.00 | 0.00 | 0.00 | 74 | 1011.7 |
| 20260901002037 | 12 | 236 | 17.7 | 24.1 | 0.00 | 0.00 | 0.00 | 68 | 1011.8 |
| 20260901001556 | 11 | 248 | 14.5 | 22.5 | 0.00 | 0.00 | 0.00 | 69 | 1011.9 |
| 20260901001041 | 11 | 244 | 16.1 | 24.1 | 0.00 | 0.00 | 0.00 | 69 | 1011.9 |
| 20260901000536 | 11 | 240 | 14.5 | 24.1 | 0.00 | 0.00 | 0.00 | 69 | 1011.9 |
| 20260901000055 | 11 | 236 | 19.3 | 32.2 | 0.00 | 0.00 | 0.00 | 67 | 1011.8 |
| 20260831235536 | 12 | 232 | 17.7 | 32.2 | 0.00 | 0.00 | 0.00 | 65 | 1011.8 |
| 20260831235038 | 12 | 228 | 19.3 | 32.2 | 0.00 | 0.00 | 0.00 | 70 | 1011.8 |
| 20260831234555 | 12 | 228 | 16.1 | 22.5 | 0.00 | 0.00 | 0.00 | 64 | 1011.7 |
| 20260831234036 | 12 | 232 | 6.4 | 14.5 | 0.00 | 0.00 | 0.00 | 75 | 1011.6 |
| 20260831233540 | 12 | 231 | 8.0 | 14.5 | 0.00 | 0.00 | 0.00 | 75 | 1011.7 |
| 20260831233057 | 11 | 240 | 6.4 | 16.1 | 0.00 | 0.00 | 0.00 | 74 | 1011.7 |
| 20260831232536 | 11 | 239 | 8.0 | 16.1 | 0.00 | 0.00 | 0.00 | 75 | 1011.6 |
| 20260831232041 | 11 | 221 | 6.4 | 9.7 | 0.00 | 0.00 | 0.00 | 75 | 1011.7 |
| 20260831231556 | 11 | 234 | 6.4 | 9.7 | 0.00 | 0.00 | 0.00 | 75 | 1011.7 |
| 20260831231039 | 11 | 240 | 6.4 | 12.9 | 0.00 | 0.00 | 0.00 | 77 | 1011.6 |
| 20260831230536 | 11 | 223 | 6.4 | 12.9 | 0.00 | 0.00 | 0.00 | 79 | 1011.6 |
| 20260831230106 | 10 | 256 | 6.4 | 12.9 | 0.00 | 0.00 | 0.00 | 76 | 1011.6 |
| 20260831225538 | 10 | 236 | 4.8 | 8.0 | 0.00 | 0.00 | 0.00 | 76 | 1011.6 |
| 20260831225036 | 10 | 254 | 3.2 | 8.0 | 0.00 | 0.00 | 0.00 | 77 | 1011.5 |
| 20260831224550 | 10 | 206 | 1.6 | 6.4 | 0.00 | 0.00 | 0.00 | 75 | 1011.6 |
| 20260831224044 | 10 | 207 | 1.6 | 6.4 | 0.00 | 0.00 | 0.00 | 74 | 1011.4 |
| 20260831223542 | 10 | 109 | 3.2 | 6.4 | 0.00 | 0.00 | 0.00 | 75 | 1011.5 |
| 20260831223102 | 10 | 99 | 3.2 | 6.4 | 0.00 | 0.00 | 0.00 | 77 | 1011.4 |
| 20260831222539 | 10 | 86 | 0.0 | 6.4 | 0.00 | 0.00 | 0.00 | 77 | 1011.3 |
| 20260831222036 | 9 | 93 | 1.6 | 8.0 | 0.00 | 0.00 | 0.00 | 78 | 1011.3 |
| 20260831221624 | 9 | 92 | 3.2 | 9.7 | 0.00 | 0.00 | 0.00 | 76 | 1011.3 |
| 20260831221038 | 9 | 103 | 3.2 | 9.7 | 0.00 | 0.00 | 0.00 | 77 | 1011.2 |
| 20260831220536 | 8 | 90 | 0.0 | 11.3 | 0.00 | 0.00 | 0.00 | 79 | 1011.1 |
| 20260831220105 | 8 | 90 | 4.8 | 11.3 | 0.00 | 0.00 | 0.00 | 78 | 1011.1 |
| 20260831215539 | 8 | 108 | 3.2 | 8.0 | 0.00 | 0.00 | 0.00 | 81 | 1011.1 |
| 20260831215040 | 8 | 96 | 3.2 | 6.4 | 0.00 | 0.00 | 0.00 | 82 | 1011.2 |
| 20260831214559 | 8 | 92 | 3.2 | 6.4 | 0.00 | 0.00 | 0.00 | 80 | 1011.1 |
| 20260831214039 | 8 | 92 | 1.6 | 6.4 | 0.00 | 0.00 | 0.00 | 79 | 1011.2 |
| 20260831213537 | 8 | 92 | 1.6 | 4.8 | 0.00 | 0.00 | 0.00 | 78 | 1011.2 |
| 20260831213059 | 8 | 92 | 0.0 | 4.8 | 0.00 | 0.00 | 0.00 | 81 | 1011.1 |
| 20260831212537 | 8 | 91 | 0.0 | 4.8 | 0.00 | 0.00 | 0.00 | 80 | 1010.9 |
| 20260831212040 | 7 | 65 | 0.0 | 4.8 | 0.00 | 0.00 | 0.00 | 80 | 1010.8 |
| 20260831211554 | 7 | 55 | 1.6 | 6.4 | 0.00 | 0.00 | 0.00 | 79 | 1010.8 |
| 20260831211038 | 8 | 72 | 1.6 | 6.4 | 0.00 | 0.00 | 0.00 | 81 | 1010.7 |
| 20260831210536 | 7 | 88 | 1.6 | 6.4 | 0.00 | 0.00 | 0.00 | 83 | 1010.6 |
| 20260831210050 | 7 | 85 | 1.6 | 9.7 | 0.00 | 0.00 | 0.00 | 86 | 1010.5 |
| 20260831205539 | 7 | 89 | 3.2 | 9.7 | 0.00 | 0.00 | 0.00 | 86 | 1010.5 |
| 20260831205040 | 6 | 90 | 1.6 | 6.4 | 0.00 | 0.00 | 0.00 | 88 | 1010.6 |
| 20260831204604 | 6 | 88 | 1.6 | 6.4 | 0.00 | 0.00 | 0.00 | 90 | 1010.6 |
| 20260831204042 | 6 | 82 | 3.2 | 9.7 | 0.00 | 0.00 | 0.00 | 90 | 1010.6 |
| 20260831203540 | 6 | 0 | 1.6 | 9.7 | 0.00 | 0.00 | 0.00 | 93 | 1010.7 |
| 20260831203125 | 5 | 79 | 3.2 | 9.7 | 0.00 | 0.00 | 0.00 | 92 | 1010.7 |
| 20260831202538 | 5 | 0 | 3.2 | 4.8 | 0.00 | 0.00 | 0.00 | 92 | 1010.6 |
| 20260831202036 | 5 | 101 | 1.6 | 4.8 | 0.00 | 0.00 | 0.00 | 93 | 1010.6 |
| 20260831201557 | 4 | 99 | 3.2 | 4.8 | 0.00 | 0.00 | 0.00 | 93 | 1010.4 |
| 20260831201040 | 4 | 90 | 1.6 | 4.8 | 0.00 | 0.00 | 0.00 | 93 | 1010.2 |
| 20260831200539 | 4 | 101 | 3.2 | 8.0 | 0.00 | 0.00 | 0.00 | 93 | 1010.2 |
| 20260831200138 | 3 | 88 | 1.6 | 8.0 | 0.00 | 0.00 | 0.00 | 93 | 1010.3 |
| 20260831195541 | 3 | 96 | 3.2 | 3.2 | 0.00 | 0.00 | 0.00 | 93 | 1010.2 |
| 20260831195036 | 3 | 94 | 0.0 | 1.6 | 0.00 | 0.00 | 0.00 | 93 | 1010.0 |
| 20260831194620 | 3 | 94 | 0.0 | 1.6 | 0.00 | 0.00 | 0.00 | 94 | 1010.0 |
| 20260831194037 | 3 | 0 | 0.0 | 1.6 | 0.00 | 0.00 | 0.00 | 95 | 1010.0 |
| 20260831193535 | 3 | 0 | 0.0 | 4.8 | 0.00 | 0.00 | 0.00 | 95 | 1009.8 |
| 20260831193046 | 2 | 0 | 0.0 | 4.8 | 0.00 | 0.00 | 0.00 | 94 | 1009.8 |
| 20260831192543 | 2 | 94 | 1.6 | 4.8 | 0.00 | 0.00 | 0.00 | 94 | 1009.9 |
| 20260831192039 | 2 | 94 | 0.0 | 1.6 | 0.00 | 0.00 | 0.00 | 94 | 1009.8 |
| 20260831191559 | 2 | 0 | 0.0 | 1.6 | 0.00 | 0.00 | 0.00 | 94 | 1009.8 |
| 20260831191039 | 1 | 0 | 0.0 | 3.2 | 0.00 | 0.00 | 0.00 | 94 | 1009.5 |
| 20260831190540 | 1 | 94 | 0.0 | 4.8 | 0.00 | 0.00 | 0.00 | 94 | 1009.7 |
| 20260831190056 | 1 | 94 | 1.6 | 4.8 | 0.00 | 0.00 | 0.00 | 93 | 1009.5 |
| 20260831185537 | 1 | 93 | 3.2 | 4.8 | 0.00 | 0.00 | 0.00 | 92 | 1009.3 |
| 20260831185038 | 1 | 93 | 0.0 | 4.8 | 0.00 | 0.00 | 0.00 | 93 | 1009.2 |
| 20260831184552 | 2 | 0 | 1.6 | 4.8 | 0.00 | 0.00 | 0.00 | 93 | 1009.3 |
| 20260831184039 | 2 | 103 | 0.0 | 3.2 | 0.00 | 0.00 | 0.00 | 93 | 1009.3 |
| 20260831183540 | 2 | 0 | 0.0 | 1.6 | 0.00 | 0.00 | 0.00 | 93 | 1009.2 |
| 20260831183058 | 2 | 0 | 0.0 | 3.2 | 0.00 | 0.00 | 0.00 | 93 | 1008.9 |
| 20260831182540 | 2 | 0 | 0.0 | 6.4 | 0.00 | 0.00 | 0.00 | 94 | 1008.7 |
| 20260831182040 | 2 | 0 | 3.2 | 6.4 | 0.00 | 0.00 | 0.00 | 95 | 1008.7 |
| 20260831181551 | 2 | 106 | 1.6 | 3.2 | 0.00 | 0.00 | 0.00 | 95 | 1008.7 |
| 20260831181039 | 1 | 0 | 0.0 | 0.0 | 0.00 | 0.00 | 0.00 | 94 | 1008.7 |
| 20260831180539 | 1 | 0 | 0.0 | 3.2 | 0.00 | 0.00 | 0.00 | 94 | 1008.6 |
| 20260831175536 | 1 | 150 | 1.6 | 3.2 | 0.00 | 0.00 | 0.00 | 93 | 1008.6 |
| 20260831175037 | 1 | 153 | 0.0 | 1.6 | 0.00 | 0.00 | 0.00 | 93 | 1008.6 |
| 20260831174552 | 1 | 0 | 0.0 | 3.2 | 0.00 | 0.00 | 0.00 | 92 | 1008.4 |
| 20260831174039 | 1 | 153 | 1.6 | 3.2 | 0.00 | 0.00 | 0.00 | 93 | 1008.4 |
| 20260831173539 | 2 | 153 | 0.0 | 1.6 | 0.00 | 0.00 | 0.00 | 92 | 1008.5 |
| 20260831173103 | 2 | 0 | 0.0 | 1.6 | 0.00 | 0.00 | 0.00 | 93 | 1008.4 |
| 20260831172539 | 2 | 153 | 0.0 | 1.6 | 0.00 | 0.00 | 0.00 | 93 | 1008.4 |
| 20260831172041 | 2 | 154 | 0.0 | 0.0 | 0.00 | 0.00 | 0.00 | 92 | 1008.3 |
| 20260831171556 | 2 | 0 | 0.0 | 0.0 | 0.00 | 0.00 | 0.00 | 92 | 1008.5 |
| 20260831171038 | 2 | 0 | 0.0 | 0.0 | 0.00 | 0.00 | 0.00 | 93 | 1008.5 |
| 20260831170540 | 1 | 0 | 0.0 | 3.2 | 0.00 | 0.00 | 0.00 | 92 | 1008.5 |
| 20260831170052 | 1 | 0 | 0.0 | 3.2 | 0.00 | 0.00 | 0.00 | 91 | 1008.5 |
| 20260831165535 | 1 | 155 | 1.6 | 3.2 | 0.00 | 0.00 | 0.00 | 90 | 1008.5 |
| 20260831165037 | 2 | 155 | 0.0 | 1.6 | 0.00 | 0.00 | 0.00 | 91 | 1008.4 |
| 20260831164548 | 2 | 0 | 0.0 | 1.6 | 0.00 | 0.00 | 0.00 | 91 | 1008.1 |
| 20260831164039 | 2 | 0 | 0.0 | 1.6 | 0.00 | 0.00 | 0.00 | 92 | 1008.0 |
| 20260831163539 | 2 | 0 | 0.0 | 6.4 | 0.00 | 0.00 | 0.00 | 92 | 1008.0 |
| 20260831163057 | 2 | 109 | 3.2 | 6.4 | 0.00 | 0.00 | 0.00 | 90 | 1008.0 |
| 20260831162539 | 2 | 111 | 3.2 | 6.4 | 0.00 | 0.00 | 0.00 | 88 | 1008.0 |
| 20260831162038 | 3 | 67 | 0.0 | 3.2 | 0.00 | 0.00 | 0.00 | 90 | 1007.9 |
| 20260831161557 | 3 | 67 | 0.0 | 1.6 | 0.00 | 0.00 | 0.00 | 89 | 1007.6 |
| 20260831161038 | 3 | 0 | 0.0 | 1.6 | 0.00 | 0.00 | 0.00 | 90 | 1007.5 |
| 20260831160539 | 3 | 67 | 0.0 | 1.6 | 0.00 | 0.00 | 0.00 | 90 | 1007.4 |
| 20260831160058 | 4 | 67 | 0.0 | 1.6 | 0.00 | 0.00 | 0.00 | 90 | 1007.2 |
| 20260831155540 | 4 | 0 | 0.0 | 4.8 | 0.00 | 0.00 | 0.00 | 90 | 1007.2 |
| 20260831155040 | 4 | 0 | 0.0 | 4.8 | 0.00 | 0.00 | 0.00 | 90 | 1007.1 |
| 20260831154615 | 3 | 67 | 1.6 | 3.2 | 0.00 | 0.00 | 0.00 | 90 | 1007.1 |
| 20260831154041 | 4 | 0 | 0.0 | 3.2 | 0.00 | 0.00 | 0.00 | 88 | 1007.0 |
| 20260831153540 | 4 | 0 | 0.0 | 4.8 | 0.00 | 0.00 | 0.00 | 89 | 1006.9 |
| 20260831153059 | 5 | 67 | 1.6 | 4.8 | 0.00 | 0.00 | 0.00 | 90 | 1007.0 |
| 20260831152538 | 4 | 67 | 3.2 | 6.4 | 0.00 | 0.00 | 0.00 | 90 | 1006.8 |
| 20260831152036 | 5 | 78 | 3.2 | 6.4 | 0.00 | 0.00 | 0.00 | 90 | 1006.6 |
| 20260831151555 | 5 | 71 | 3.2 | 6.4 | 0.00 | 0.00 | 0.00 | 90 | 1006.6 |
| 20260831151147 | 5 | 71 | 3.2 | 6.4 | 0.00 | 0.00 | 0.00 | 89 | 1006.7 |
| 20260831150539 | 5 | 74 | 3.2 | 3.2 | 0.00 | 0.00 | 0.00 | 89 | 1006.5 |
| 20260831150053 | 5 | 0 | 0.0 | 1.6 | 0.00 | 0.00 | 0.00 | 89 | 1006.4 |
| 20260831145539 | 5 | 74 | 0.0 | 3.2 | 0.00 | 0.00 | 0.00 | 89 | 1006.5 |
| 20260831145039 | 5 | 74 | 0.0 | 3.2 | 0.00 | 0.00 | 0.00 | 89 | 1006.4 |
| 20260831144549 | 5 | 74 | 1.6 | 3.2 | 0.00 | 0.00 | 0.00 | 89 | 1006.3 |
| 20260831144039 | 5 | 74 | 1.6 | 4.8 | 0.00 | 0.00 | 0.00 | 89 | 1006.5 |
| 20260831143539 | 5 | 74 | 0.0 | 4.8 | 0.00 | 0.00 | 0.00 | 89 | 1006.5 |
| 20260831143057 | 5 | 76 | 3.2 | 6.4 | 0.00 | 0.00 | 0.00 | 90 | 1006.6 |
| 20260831142540 | 5 | 62 | 1.6 | 6.4 | 0.00 | 0.00 | 0.00 | 90 | 1006.5 |
| 20260831142039 | 5 | 123 | 4.8 | 6.4 | 0.00 | 0.00 | 0.00 | 90 | 1006.7 |
| 20260831141607 | 5 | 80 | 1.6 | 4.8 | 0.00 | 0.00 | 0.00 | 90 | 1006.7 |
| 20260831141040 | 5 | 0 | 0.0 | 4.8 | 0.00 | 0.00 | 0.00 | 90 | 1006.6 |
| 20260831140541 | 5 | 66 | 0.0 | 4.8 | 0.00 | 0.00 | 0.00 | 91 | 1006.5 |
| 20260831140052 | 5 | 0 | 0.0 | 6.4 | 0.00 | 0.00 | 0.00 | 90 | 1006.5 |
| 20260831135539 | 5 | 0 | 1.6 | 6.4 | 0.00 | 0.00 | 0.00 | 90 | 1006.5 |
| 20260831135039 | 5 | 88 | 3.2 | 6.4 | 0.00 | 0.00 | 0.00 | 90 | 1006.4 |
| 20260831134550 | 5 | 61 | 0.0 | 1.6 | 0.00 | 0.00 | 0.00 | 90 | 1006.2 |
| 20260831134039 | 5 | 0 | 0.0 | 1.6 | 0.00 | 0.00 | 0.00 | 90 | 1006.1 |
| 20260831133539 | 5 | 61 | 0.0 | 1.6 | 0.00 | 0.00 | 0.00 | 91 | 1006.0 |
| 20260831133047 | 5 | 61 | 0.0 | 6.4 | 0.00 | 0.00 | 0.00 | 91 | 1006.0 |
| 20260831132539 | 5 | 0 | 3.2 | 6.4 | 0.00 | 0.00 | 0.00 | 91 | 1005.8 |
| 20260831132040 | 5 | 0 | 0.0 | 1.6 | 0.00 | 0.00 | 0.00 | 91 | 1005.8 |